Wind_Speed
18 18 18 18 17 18 18 17 17 17 16 16 15 15 15 15 15 15 15 15 14 14 14 14 14 14 14 14 15 16 16 17 17 17 17 17 17 18 18 18 18 18 19
20 20 20 20 19 19 18 18 18 17 17 16 15 15 15 16 16 16 16 16 15 15 16 15 16 15 16 16 16 17 17 17 18 18 18 18 18 19 19 20 20 20 20
21 21 21 21 21 20 19 19 19 19 19 19 18 18 18 17 17 17 17 16 16 17 17 17 17 18 18 18 18 18 18 18 18 18 18 18 19 19 20 21 21 21 22
23 23 23 23 22 22 21 20 20 20 20 20 20 20 19 19 19 18 18 18 18 19 18 18 19 19 19 19 19 19 18 18 18 19 19 20 20 21 22 22 23 23 23
24 24 24 23 23 23 23 22 22 21 21 21 20 21 21 20 20 20 19 19 20 20 20 20 20 19 20 20 20 20 20 20 21 21 21 21 22 22 23 24 24 24 25
25 24 24 24 24 24 24 24 24 23 23 22 22 22 22 21 21 21 21 21 21 22 21 21 21 22 21 21 22 22 22 22 23 23 23 23 23 24 24 25 25 25 25
26 25 25 26 27 27 26 26 25 24 24 24 24 24 24 24 23 23 23 23 23 22 22 21 22 21 22 22 23 24 24 24 24 25 25 25 25 25 26 26 26 26 26
27 27 28 28 28 28 27 27 26 26 25 25 25 26 25 25 25 24 25 25 25 24 24 23 23 23 24 24 25 25 26 26 26 27 28 27 27 27 26 27 28 28 27
28 29 29 29 29 29 28 27 27 27 26 26 26 26 26 26 26 26 26 27 27 26 25 25 24 24 24 25 26 27 27 27 28 28 28 29 29 29 29 29 30 30 30
27 28 28 28 28 29 29 28 28 27 27 27 27 27 26 26 26 27 27 28 27 27 27 26 26 26 27 27 28 28 28 28 28 29 29 29 29 30 31 31 31 32 32
27 26 27 27 27 28 28 28 29 29 29 28 27 27 27 27 27 26 26 27 27 28 28 28 28 28 29 29 29 29 29 30 30 30 30 30 30 31 32 32 32 32 33
26 26 26 26 28 28 27 27 28 28 28 27 27 27 27 28 28 27 28 28 28 29 29 29 29 29 29 30 30 30 30 30 30 30 31 31 31 32 33 33 33 33 32
25 26 26 27 28 28 28 27 27 27 27 27 27 27 27 27 28 28 28 29 29 29 29 29 29 29 30 30 31 31 31 31 31 31 32 32 32 32 33 33 33 33 32
25 26 26 27 27 28 27 27 26 27 28 28 28 28 28 28 28 29 29 29 30 30 30 30 30 30 31 31 31 31 31 32 32 32 32 32 32 33 33 33 33 32 32
25 25 25 25 25 25 26 27 27 28 29 28 29 29 29 29 29 29 30 30 30 31 31 31 31 30 31 30 31 31 32 32 32 32 32 32 32 32 32 32 31 31 32
25 25 24 24 25 25 26 27 28 29 30 30 30 29 29 29 29 30 30 30 30 30 30 30 30 30 30 30 31 31 32 32 32 32 31 31 32 32 32 31 31 31 31
25 25 25 25 25 26 27 27 28 29 30 30 31 31 30 30 30 30 29 29 29 30 31 31 30 30 30 31 31 31 31 31 31 30 30 30 31 31 31 31 31 31 31
24 25 26 26 27 27 27 27 28 28 28 29 29 29 29 29 29 29 29 29 29 30 30 30 30 29 30 30 31 30 30 30 30 30 30 30 30 29 29 28 28 29 29
24 25 25 26 27 27 27 26 27 27 27 27 27 28 28 28 29 28 29 29 29 29 29 29 30 30 30 31 31 31 31 31 31 31 30 29 29 28 28 28 28 28 28
23 24 25 25 26 26 27 27 27 26 25 25 26 27 28 28 28 28 28 28 28 28 29 29 30 30 30 30 30 31 31 31 31 31 30 30 29 29 29 28 28 28 29
22 23 24 24 25 25 25 26 26 26 26 26 26 27 27 27 27 27 27 28 28 28 28 28 30 30 30 31 31 30 30 30 31 31 31 30 30 29 28 28 28 28 29
23 23 23 23 23 23 24 25 25 26 26 26 27 27 27 27 27 27 28 28 28 28 29 29 30 31 31 31 31 30 30 31 31 31 30 30 29 29 29 29 29 29 29
23 23 23 24 24 24 24 24 25 25 26 26 27 28 28 28 27 27 27 28 28 29 29 30 30 30 30 30 30 30 30 30 30 29 28 27 27 28 28 28 28 29 29
23 23 24 24 24 24 24 25 25 26 26 26 27 27 27 27 27 28 28 28 29 29 29 29 29 29 30 30 29 28 28 28 28 28 26 26 26 26 26 27 27 28 27
22 23 23 24 24 24 24 25 25 25 26 26 27 27 27 27 27 27 28 28 28 28 28 29 29 29 28 28 28 27 27 27 28 27 26 25 26 26 26 26 26 25 25
21 22 23 23 23 23 24 24 24 25 25 25 26 26 27 28 28 28 28 28 28 28 27 27 27 26 26 26 25 25 26 26 26 25 25 25 25 26 26 26 26 26 26
Wind_Direction
267 266 265 266 267 269 271 270 269 266 267 270 272 275 276 277 280 282 283 285 282 278 280 280 280 280 281 283 281 281 281 280 277 276 277 279 280 279 279 279 279 281 282
267 267 266 266 267 268 269 269 269 268 266 267 271 274 276 277 277 279 282 280 275 276 278 280 280 281 281 283 284 282 281 280 279 276 277 280 279 277 277 280 281 283 285
267 267 267 266 265 266 265 265 266 268 267 266 268 273 274 275 276 276 277 275 275 276 278 280 281 282 283 283 285 285 282 280 279 279 278 279 281 281 280 280 281 284 286
267 268 268 266 264 264 262 264 265 267 267 266 267 271 272 272 273 273 272 272 273 276 279 279 281 280 281 283 284 285 284 281 281 280 279 280 279 280 282 282 281 283 286
267 268 266 264 263 262 261 263 266 268 269 270 269 269 269 270 271 272 271 272 272 275 277 278 279 279 280 281 282 282 281 280 281 282 281 281 280 281 282 282 283 284 285
265 265 263 261 262 261 261 264 267 268 269 270 270 270 268 269 270 270 271 272 272 272 274 276 277 280 279 278 278 280 281 280 282 283 282 282 281 280 281 282 284 286 286
262 263 262 262 263 262 262 264 266 268 268 269 269 268 267 268 268 269 271 274 274 273 274 276 277 277 278 278 278 278 278 279 281 282 282 281 281 281 282 283 285 286 285
264 263 261 261 262 261 261 263 264 267 268 269 269 269 269 268 267 269 272 274 276 274 275 276 277 278 279 279 280 279 279 279 281 281 281 280 280 281 282 283 284 284 285
265 266 264 261 261 260 261 263 264 266 267 268 268 267 269 268 268 270 272 272 275 276 276 276 277 279 280 281 281 281 281 281 282 282 281 282 281 281 282 283 283 284 285
266 264 263 262 261 261 262 264 264 267 268 268 268 267 268 268 269 271 273 273 274 274 275 275 276 278 279 280 280 281 283 284 284 283 281 280 280 280 281 282 283 283 284
264 262 261 260 260 260 261 263 265 267 268 267 267 270 270 269 269 270 272 274 274 274 274 276 278 280 279 279 281 282 283 283 283 283 282 281 281 282 282 282 283 284 284
263 262 261 261 260 259 261 264 265 266 266 264 266 269 270 269 269 271 273 274 275 275 275 276 278 279 279 280 281 283 283 283 283 283 282 282 282 283 283 284 285 285 285
262 262 262 262 261 260 261 263 264 265 264 265 267 268 270 271 272 273 274 274 274 275 276 277 278 280 280 281 281 281 281 282 283 284 283 283 283 284 284 285 285 285 285
263 263 263 264 263 262 261 262 263 264 263 264 266 268 270 271 273 274 274 274 275 276 277 277 279 279 280 280 280 281 282 283 283 283 283 283 284 284 285 286 284 284 285
266 266 264 264 265 264 262 261 263 265 264 265 267 269 270 271 273 273 274 274 275 276 277 278 279 280 280 281 281 281 282 283 283 284 284 285 285 285 285 285 285 285 285
265 265 265 264 263 263 264 264 264 266 267 268 270 271 271 271 272 274 275 276 276 276 278 279 280 281 282 282 282 281 282 283 283 284 285 286 286 285 285 284 285 287 287
264 264 265 265 265 267 267 266 267 268 270 271 272 270 270 270 271 273 274 276 277 277 277 279 280 281 282 282 282 282 282 282 283 284 285 286 287 287 286 286 286 286 287
267 266 265 264 265 267 268 268 268 269 270 270 270 269 269 269 271 272 273 275 275 277 278 279 280 280 282 282 282 282 282 282 282 284 286 286 286 286 286 286 286 286 287
268 268 268 266 266 266 267 268 269 270 271 271 271 271 271 271 273 274 275 276 276 277 278 279 280 281 282 282 281 282 283 282 281 283 284 285 285 284 284 285 285 286 287
269 268 267 267 267 266 266 268 269 271 272 271 271 273 274 275 276 277 278 277 277 278 279 280 281 281 282 281 282 284 283 282 283 283 283 283 283 282 283 284 284 286 287
269 268 267 267 269 269 268 269 270 271 271 271 273 274 275 276 276 277 278 277 277 279 280 280 281 281 280 281 284 285 284 283 283 283 283 283 282 281 281 283 284 285 286
271 270 269 270 270 269 268 268 268 269 271 273 274 275 276 277 276 275 277 276 277 278 279 280 280 280 281 282 284 283 283 284 284 284 283 282 281 280 279 280 283 285 286
271 271 271 271 272 272 271 270 270 270 272 275 275 276 276 276 275 275 276 276 277 279 279 280 281 280 280 281 282 283 283 283 283 284 282 282 281 279 279 281 283 283 283
271 270 271 271 272 273 273 272 272 272 273 275 276 277 276 274 275 276 275 277 278 279 280 281 282 281 280 279 280 281 282 282 283 283 282 282 281 280 280 281 282 284 285
273 270 271 273 273 272 273 273 274 275 275 276 277 277 276 277 278 278 278 277 277 279 281 282 282 282 281 280 280 281 283 283 283 282 282 282 281 281 280 281 283 283 285
277 275 276 275 273 272 273 275 275 275 277 278 278 278 278 279 279 279 279 279 279 280 281 282 283 283 283 282 282 282 283 283 282 281 281 281 281 281 281 281 282 283 285
Height
5846 5845 5845 5845 5845 5844 5844 5844 5843 5843 5843 5844 5844 5844 5844 5844 5844 5843 5843 5842 5842 5842 5842 5842 5841 5841 5840 5840 5839 5839 5838 5838 5837 5836 5836 5835 5834 5834 5833 5832 5832 5831 5830
5841 5841 5841 5840 5840 5840 5840 5840 5839 5839 5839 5839 5840 5840 5840 5840 5840 5839 5838 5838 5838 5838 5838 5837 5837 5836 5836 5835 5835 5834 5834 5833 5833 5832 5831 5830 5830 5829 5828 5827 5826 5825 5825
5836 5836 5836 5835 5835 5835 5835 5835 5835 5835 5835 5835 5835 5836 5836 5835 5835 5834 5834 5833 5834 5833 5833 5833 5832 5832 5832 5831 5830 5829 5829 5828 5828 5827 5826 5825 5824 5823 5822 5822 5821 5820 5819
5830 5830 5830 5830 5830 5830 5830 5830 5830 5830 5830 5830 5831 5831 5831 5831 5830 5829 5829 5829 5829 5828 5828 5828 5827 5826 5826 5826 5825 5824 5824 5823 5822 5822 5821 5820 5819 5818 5816 5816 5815 5814 5812
5824 5824 5824 5824 5824 5824 5825 5825 5825 5825 5825 5825 5825 5825 5826 5826 5825 5825 5824 5824 5824 5823 5823 5822 5821 5821 5820 5820 5820 5819 5818 5818 5817 5816 5815 5814 5813 5812 5811 5809 5808 5807 5806
5818 5817 5817 5817 5818 5818 5818 5819 5819 5819 5819 5819 5819 5820 5820 5820 5820 5819 5819 5819 5818 5818 5817 5816 5816 5815 5815 5814 5814 5813 5812 5812 5811 5809 5808 5808 5807 5805 5804 5803 5802 5801 5799
5811 5811 5810 5811 5811 5811 5812 5812 5812 5813 5813 5813 5813 5813 5814 5814 5814 5813 5813 5813 5812 5811 5811 5810 5809 5809 5809 5808 5807 5807 5806 5805 5804 5803 5802 5801 5800 5799 5797 5796 5794 5793 5792
5803 5803 5803 5803 5803 5804 5804 5805 5806 5806 5806 5807 5807 5807 5807 5807 5807 5806 5806 5806 5806 5805 5805 5805 5804 5803 5802 5802 5801 5800 5799 5798 5797 5796 5795 5794 5792 5791 5790 5789 5787 5786 5785
5795 5795 5795 5795 5795 5796 5797 5798 5798 5799 5799 5800 5800 5800 5800 5800 5800 5800 5799 5799 5799 5799 5798 5798 5797 5797 5796 5795 5793 5792 5791 5790 5789 5788 5787 5785 5784 5783 5782 5781 5780 5778 5777
5787 5787 5787 5788 5788 5788 5789 5790 5790 5791 5792 5792 5792 5792 5792 5793 5792 5792 5792 5792 5791 5791 5791 5790 5790 5789 5789 5787 5786 5784 5783 5782 5781 5779 5778 5777 5776 5774 5773 5772 5771 5769 5768
5780 5780 5780 5780 5781 5781 5782 5782 5783 5784 5784 5784 5784 5785 5785 5785 5785 5785 5784 5784 5783 5783 5783 5782 5782 5781 5780 5779 5778 5776 5775 5774 5772 5771 5769 5768 5767 5766 5764 5763 5762 5760 5758
5772 5772 5772 5773 5773 5774 5775 5775 5775 5776 5776 5776 5776 5777 5777 5777 5777 5777 5777 5776 5776 5775 5775 5774 5773 5772 5771 5770 5769 5768 5766 5764 5763 5762 5760 5759 5758 5756 5755 5753 5752 5750 5748
5765 5765 5765 5765 5766 5766 5767 5767 5768 5768 5768 5768 5769 5769 5769 5769 5769 5768 5768 5768 5767 5766 5766 5765 5764 5763 5762 5761 5760 5758 5757 5755 5754 5753 5751 5750 5748 5747 5745 5743 5742 5740 5738
5757 5758 5758 5758 5758 5759 5759 5760 5760 5760 5760 5761 5761 5761 5761 5761 5761 5760 5760 5759 5758 5758 5757 5756 5755 5754 5753 5751 5750 5749 5747 5746 5744 5743 5742 5740 5739 5737 5735 5733 5732 5730 5729
5750 5750 5750 5750 5750 5751 5751 5752 5752 5752 5752 5753 5753 5752 5752 5752 5752 5752 5751 5751 5750 5749 5748 5747 5746 5745 5743 5742 5740 5739 5738 5736 5735 5734 5732 5731 5729 5727 5726 5724 5722 5720 5719
5742 5742 5742 5743 5743 5743 5743 5744 5744 5744 5744 5744 5744 5744 5744 5743 5743 5743 5742 5742 5741 5740 5738 5738 5737 5736 5734 5733 5731 5730 5728 5727 5726 5724 5723 5721 5719 5718 5716 5714 5713 5711 5709
5735 5735 5735 5735 5736 5735 5735 5735 5736 5736 5735 5735 5734 5734 5735 5735 5734 5734 5733 5732 5732 5730 5729 5729 5728 5726 5725 5724 5722 5720 5719 5717 5716 5715 5713 5712 5710 5708 5706 5704 5703 5701 5699
5727 5727 5727 5727 5727 5727 5727 5727 5727 5727 5726 5725 5725 5724 5725 5725 5725 5725 5724 5723 5722 5721 5720 5719 5718 5717 5716 5714 5713 5711 5709 5708 5707 5705 5704 5702 5701 5699 5697 5695 5694 5692 5690
5720 5719 5719 5719 5719 5719 5719 5718 5718 5718 5718 5717 5717 5717 5717 5716 5716 5715 5714 5713 5713 5712 5711 5710 5709 5708 5706 5705 5703 5701 5700 5698 5697 5696 5694 5693 5691 5690 5688 5687 5685 5684 5682
5712 5711 5711 5711 5710 5710 5710 5710 5710 5710 5709 5709 5709 5709 5708 5708 5707 5706 5705 5704 5704 5703 5702 5701 5699 5698 5696 5695 5693 5691 5690 5688 5687 5686 5684 5683 5682 5681 5679 5678 5676 5674 5673
5704 5704 5703 5703 5703 5702 5702 5702 5702 5701 5701 5701 5701 5700 5699 5699 5698 5697 5696 5696 5695 5694 5692 5691 5690 5688 5687 5685 5684 5682 5680 5678 5677 5675 5674 5673 5672 5671 5670 5668 5667 5665 5663
5697 5696 5696 5695 5695 5695 5694 5694 5694 5693 5693 5693 5692 5691 5690 5689 5689 5689 5688 5687 5686 5684 5683 5681 5680 5678 5677 5675 5674 5672 5670 5669 5667 5665 5664 5662 5661 5660 5660 5658 5657 5656 5654
5688 5688 5688 5688 5687 5687 5686 5686 5686 5685 5685 5684 5683 5682 5681 5680 5680 5679 5678 5677 5676 5675 5674 5672 5670 5669 5667 5666 5664 5662 5661 5659 5658 5656 5654 5653 5652 5651 5650 5649 5648 5646 5645
5680 5680 5680 5680 5679 5679 5678 5678 5677 5677 5676 5675 5674 5673 5672 5671 5670 5670 5669 5668 5667 5666 5664 5663 5661 5659 5657 5656 5654 5653 5651 5650 5648 5647 5645 5644 5643 5642 5641 5640 5639 5637 5636
5672 5672 5672 5671 5671 5670 5670 5669 5669 5668 5667 5666 5665 5664 5664 5662 5661 5660 5659 5658 5657 5656 5655 5653 5651 5650 5648 5646 5645 5644 5643 5641 5640 5638 5637 5636 5634 5633 5632 5631 5630 5628 5627
5665 5664 5663 5662 5662 5661 5661 5661 5660 5659 5658 5658 5656 5655 5654 5653 5652 5651 5650 5649 5648 5647 5645 5644 5642 5641 5639 5637 5636 5635 5634 5633 5631 5630 5628 5627 5626 5625 5624 5622 5621 5620 5618